Probability
0 0 0 0 0 0 0 0 0 0 0 1 2 4 3 1 0 0 0 0 0 0 1 2 5 8 8 7 6 7 9 9 8 7 8 9 8 7 7 6 5 4 3 1 1 1 0 1 1
0 0 0 0 0 0 0 0 0 0 0 2 4 4 3 1 0 0 0 0 0 0 0 2 6 9 8 6 5 6 7 7 7 8 9 10 9 8 7 5 4 3 2 1 0 0 0 0 1
0 0 0 0 0 0 0 0 0 1 2 5 6 5 2 1 0 0 0 0 0 0 0 2 7 11 9 6 5 5 5 6 7 8 10 10 10 9 8 5 4 3 2 0 0 0 0 0 1
0 0 0 0 0 0 0 0 0 2 6 8 8 5 2 0 0 0 1 1 2 2 1 3 9 12 10 7 5 5 5 6 7 8 9 10 9 8 7 5 4 3 2 1 0 0 1 1 2
0 0 0 0 0 0 0 0 1 3 7 9 9 7 4 2 1 1 2 3 4 5 4 6 11 13 11 9 8 8 7 7 7 8 9 10 9 7 5 3 3 4 3 1 1 1 1 2 2
0 0 0 0 0 0 0 0 1 4 7 9 8 7 5 3 1 2 4 6 7 10 11 12 14 15 13 12 13 12 11 10 11 11 11 12 12 9 6 4 3 4 4 3 3 2 1 1 1
0 0 0 0 0 0 1 2 3 6 8 8 5 4 5 4 4 6 10 12 14 16 18 18 16 15 15 15 16 17 16 16 15 15 14 14 14 12 10 7 5 5 6 6 4 2 1 1 1
0 0 0 1 0 0 1 3 5 7 6 6 5 4 5 9 12 14 17 18 18 18 20 20 17 14 14 16 18 19 19 17 15 15 14 13 12 10 10 8 7 8 7 5 3 1 1 1 1
0 0 0 0 0 0 1 3 7 8 7 7 10 10 12 19 23 22 22 20 17 16 16 17 16 13 13 15 17 18 18 14 11 11 12 11 9 7 7 6 6 6 5 3 1 1 2 2 2
0 0 0 0 0 0 2 5 8 8 7 9 15 19 23 28 29 26 23 18 14 13 13 14 14 12 10 13 14 15 14 11 9 8 9 10 8 6 5 5 4 3 3 1 0 1 1 1 1
0 0 1 0 0 1 5 8 9 7 5 9 18 25 30 30 29 26 20 14 12 12 12 12 11 9 8 9 11 12 11 10 9 7 8 8 7 5 4 4 3 2 2 1 1 0 0 1 1
1 1 1 1 1 3 6 8 9 7 5 10 19 27 30 28 25 23 18 13 12 12 11 11 11 9 7 7 8 9 11 11 9 7 6 7 6 4 3 3 3 2 1 1 1 1 1 2 3
2 1 1 1 2 3 5 7 8 9 9 14 22 28 29 26 24 22 19 15 12 11 11 11 12 11 8 6 6 7 8 9 7 5 4 4 4 3 3 2 2 1 1 0 0 1 2 3 4
2 1 1 1 2 3 5 7 8 10 14 20 27 31 29 26 25 24 19 15 12 11 10 11 11 10 7 6 6 5 5 5 5 2 1 1 2 3 2 1 1 0 0 0 0 0 1 2 3
1 0 0 0 1 2 4 5 6 11 19 26 31 33 30 27 27 25 19 14 13 11 11 11 11 9 6 5 5 5 4 4 3 2 1 2 2 2 1 0 0 0 0 0 0 0 0 1 2
0 0 0 0 0 0 1 2 3 10 21 29 33 32 30 28 26 22 17 15 14 13 12 12 13 11 7 4 5 6 5 4 4 3 4 4 4 2 1 0 0 0 0 0 0 0 0 0 1
0 0 0 0 0 0 0 1 3 10 19 26 29 28 27 27 24 20 18 16 14 14 14 13 14 13 9 5 4 4 4 3 3 4 5 6 5 3 1 1 0 0 0 0 0 0 0 0 1
0 0 0 0 0 0 1 2 5 11 17 20 22 23 25 25 22 20 20 18 16 17 17 15 14 12 8 4 2 1 1 1 1 3 3 4 4 3 1 1 0 0 0 0 0 0 0 0 0
0 0 0 0 0 0 2 4 6 10 13 16 19 22 25 25 22 20 20 22 22 20 18 16 13 9 6 4 2 1 2 2 3 2 2 2 3 2 1 0 0 1 1 1 0 0 0 0 0
0 0 0 0 0 1 3 5 5 6 8 12 16 20 23 24 21 19 21 26 27 22 18 16 12 7 4 3 2 1 1 2 3 2 1 1 1 1 2 1 1 1 2 1 1 0 0 0 0
0 0 0 0 0 1 2 4 3 2 3 7 10 13 17 19 19 19 22 27 27 22 18 15 10 4 1 1 1 1 0 1 1 1 1 0 0 1 2 2 1 1 2 2 1 0 0 0 0
0 0 0 0 0 0 1 1 1 0 1 3 5 8 11 14 15 18 22 27 26 21 16 12 8 3 1 0 0 0 0 0 0 0 0 0 0 0 1 1 1 1 2 2 1 0 0 0 0
0 0 0 0 0 0 0 0 0 0 0 1 4 7 9 11 13 17 23 26 23 17 12 9 6 3 1 1 0 0 0 0 0 0 0 0 0 0 0 0 0 0 1 1 0 0 0 0 0
0 0 0 0 0 0 0 0 0 0 0 1 3 7 9 10 13 18 22 23 17 11 8 7 6 5 4 3 1 1 1 0 0 0 0 0 0 0 0 0 0 0 0 0 0 0 0 0 0
0 0 0 0 0 0 0 0 0 0 0 1 3 6 8 9 12 17 20 17 10 5 4 5 6 7 7 5 3 3 2 1 1 1 1 0 0 0 0 0 0 0 0 0 0 0 0 0 0
0 0 0 0 0 0 0 0 0 0 0 1 3 5 7 8 10 13 14 10 5 3 3 4 6 8 7 5 4 4 4 3 2 2 2 1 0 0 0 0 0 0 0 0 0 0 0 0 0
0 0 0 0 0 0 0 0 0 0 0 1 3 6 8 8 8 8 8 6 4 3 3 4 6 7 6 5 4 4 4 3 3 3 2 1 0 0 0 0 0 0 0 0 0 0 0 0 0
0 0 0 0 0 0 0 0 0 0 0 1 2 6 9 10 8 6 4 3 3 3 3 4 5 6 6 6 5 4 3 3 3 2 1 0 0 0 0 0 0 0 0 0 0 0 0 0 0
0 0 0 0 0 0 0 0 0 0 0 0 1 5 9 9 7 4 2 1 2 3 3 3 4 4 5 5 4 3 3 2 2 1 0 0 0 0 0 0 0 0 0 0 0 0 0 0 0
0 0 0 0 0 0 0 0 0 0 0 0 1 3 6 7 6 3 1 1 2 3 3 3 3 4 4 4 4 3 2 1 1 0 0 0 0 0 0 0 0 0 0 0 0 0 0 0 0
Wind_Speed
1 2 2 3 5 5 1 3 2 1 2 1 2 3 4 3 2 2 1 7 11 11 9 12 14 14 14 14 14 14 14 14 14 14 13 13 12 11 10 10 9 8 7 7 6 6 5 5 5
1 1 3 5 5 1 3 2 1 1 1 1 3 3 4 2 2 3 3 6 10 10 8 9 15 14 14 14 14 14 13 13 13 13 12 12 11 10 10 9 8 7 6 6 5 5 4 4 3
1 2 4 5 3 4 3 2 2 1 1 2 3 3 3 2 3 3 4 9 9 8 7 9 15 14 14 14 13 13 13 12 12 12 11 11 10 9 9 8 7 6 5 4 4 3 3 2 2
3 4 5 4 2 4 3 2 2 1 2 2 3 3 3 2 2 5 9 10 9 7 7 9 14 14 13 13 13 12 12 11 11 11 10 10 9 8 7 7 6 5 4 3 2 2 1 0 0
4 5 4 2 3 4 3 2 2 1 0 1 3 3 2 4 7 11 10 10 9 7 5 7 12 12 12 12 12 12 11 10 10 9 9 8 7 7 6 5 4 3 3 2 1 1 1 1 2
5 5 4 1 4 3 2 2 2 2 1 0 3 4 2 3 7 9 9 8 8 8 6 6 11 12 11 11 11 11 10 9 9 9 8 7 6 5 4 4 3 2 2 2 1 2 2 2 2
5 5 4 3 2 3 2 1 2 2 2 1 2 5 3 4 5 8 8 7 7 6 6 5 5 7 10 10 10 10 9 9 8 8 7 6 5 4 3 2 2 2 1 2 2 2 3 3 3
5 5 2 1 2 3 1 1 1 2 2 1 3 6 5 6 8 9 9 7 7 6 5 4 4 4 4 5 9 10 9 8 8 7 6 5 4 3 2 1 1 1 1 2 2 3 3 4 4
4 5 2 4 4 3 1 1 0 1 3 1 1 2 6 13 12 10 8 6 6 6 4 4 4 4 4 4 6 7 7 7 6 5 5 4 1 1 0 0 0 1 1 2 2 3 3 4 4
4 3 5 4 4 3 2 2 3 2 2 1 2 4 11 13 12 11 10 9 8 7 6 4 4 4 4 4 3 2 3 2 2 2 2 1 1 0 0 1 1 1 2 2 3 3 3 3 2
4 5 4 3 3 3 2 1 2 4 3 5 7 10 12 12 10 10 9 8 8 7 6 5 5 4 4 2 2 2 2 2 2 2 2 1 1 0 0 1 1 2 2 2 3 3 2 2 2
3 3 3 2 1 2 3 2 2 3 5 4 6 10 12 12 11 10 9 8 6 6 6 5 5 4 4 3 2 2 2 2 1 1 2 1 1 0 0 0 1 1 1 1 2 1 2 2 3
3 3 2 2 1 2 2 2 2 2 1 5 7 9 10 10 8 7 6 6 6 6 6 5 5 4 3 3 2 3 2 2 2 1 1 2 1 1 0 1 1 1 1 1 1 1 2 2 3
2 0 2 2 1 0 3 0 1 2 3 6 7 8 9 9 8 7 6 6 6 6 5 4 4 4 3 3 2 2 2 2 2 1 1 2 1 1 1 0 1 1 1 1 1 1 2 2 2
1 2 4 2 1 0 3 2 3 4 5 6 7 7 7 6 6 7 7 6 6 5 4 3 4 3 3 3 3 2 2 2 1 1 1 1 1 1 1 0 1 1 1 1 1 1 1 2 2
2 3 1 4 0 1 4 4 5 4 6 6 6 6 6 5 6 6 6 5 5 5 4 3 3 3 3 3 2 2 2 2 1 1 1 1 1 1 1 1 1 1 1 1 1 1 1 2 2
4 1 2 3 1 1 2 4 4 3 6 6 6 6 6 5 5 5 5 6 5 5 5 5 3 4 3 3 2 2 2 1 0 0 0 0 0 1 1 1 1 1 1 1 1 1 1 2 3
2 2 2 3 2 2 1 5 5 2 5 6 5 5 5 6 6 5 5 5 5 5 5 5 4 3 3 2 2 2 2 1 0 0 0 0 0 0 1 0 0 0 0 1 1 1 1 1 2
3 2 3 4 2 2 3 5 6 2 4 4 4 5 6 6 4 4 5 5 5 4 5 5 5 3 3 2 2 1 1 0 0 0 0 1 1 1 1 0 0 0 0 1 1 1 2 2 1
3 2 2 3 0 2 1 4 4 3 4 6 7 7 6 5 4 4 4 5 5 5 5 4 4 4 3 2 2 1 1 1 0 0 1 1 1 0 0 0 0 0 0 1 1 0 0 1 1
2 4 4 2 1 2 1 4 3 2 2 3 4 5 6 8 8 6 5 4 5 5 5 4 4 4 3 3 2 2 2 1 1 1 1 1 1 1 0 0 0 0 0 1 2 1 1 1 1
3 4 4 3 2 1 1 2 6 3 3 4 5 5 6 6 5 5 6 6 6 5 4 4 4 4 3 3 3 3 2 1 1 1 1 1 1 1 0 1 0 0 0 1 2 1 1 1 1
3 1 3 2 3 1 1 2 7 2 3 5 5 6 6 6 6 7 7 7 6 5 5 4 4 3 3 3 3 3 2 1 1 0 0 1 1 1 1 1 0 1 1 1 2 1 1 1 2
3 4 5 5 4 1 2 2 6 3 5 4 4 5 5 5 6 6 6 5 5 4 4 4 4 3 2 3 3 3 3 2 1 1 1 1 1 1 2 1 1 1 1 2 2 2 2 2 2
4 5 4 5 4 4 2 2 7 6 4 5 5 3 2 4 5 5 6 6 6 5 5 4 4 3 2 2 3 3 3 3 3 2 2 1 1 2 2 2 1 2 2 2 1 2 2 2 2
1 5 6 3 4 5 2 4 6 4 3 2 2 2 1 3 4 5 5 6 6 5 5 4 4 3 3 2 2 2 2 2 2 2 2 2 2 2 2 2 2 2 2 2 1 1 2 2 2
2 1 3 5 1 1 5 5 6 2 3 2 2 1 1 2 3 4 4 5 5 5 5 5 4 3 3 3 3 2 2 2 2 2 2 1 2 2 2 2 2 2 2 2 2 2 3 2 2
3 5 4 4 2 2 5 4 4 4 4 3 2 2 1 1 2 3 3 4 4 4 4 4 4 3 2 3 3 2 2 2 2 2 2 2 2 2 2 2 2 3 3 2 2 2 3 2 3
2 3 4 3 3 4 3 7 4 5 4 3 3 2 1 2 3 3 3 3 3 3 3 3 3 2 2 2 1 1 1 2 2 2 2 2 2 2 2 2 3 3 3 2 2 3 3 3 3
1 3 4 2 2 3 3 8 4 2 2 2 2 2 1 3 2 2 2 3 3 3 3 3 3 3 2 2 1 2 1 1 1 2 2 2 2 2 2 2 2 3 3 2 3 4 4 3 3
Wind_Direction
193 107 109 79 59 51 274 263 258 335 2 24 110 116 129 132 181 208 70 129 131 138 147 152 149 143 138 134 132 129 128 127 126 126 127 127 126 126 127 127 127 126 125 125 124 122 118 113 113
124 120 73 65 87 79 275 254 241 220 192 104 61 78 85 75 69 97 114 129 133 138 143 149 148 144 140 138 136 134 133 131 130 130 131 130 130 130 130 130 129 127 127 128 128 126 122 117 113
153 77 86 78 117 182 219 207 166 96 101 98 67 53 74 84 123 135 139 132 128 134 139 152 148 147 144 142 140 139 137 135 134 134 133 133 133 134 135 134 134 134 133 132 132 129 127 127 124
97 55 57 79 217 228 219 208 162 90 12 54 101 80 67 37 138 135 132 133 131 135 142 154 150 149 147 146 145 143 141 139 137 136 136 136 136 137 139 139 140 140 140 142 145 143 150 166 209
66 82 71 45 260 257 243 223 192 180 173 92 111 99 47 22 103 121 131 137 138 135 138 150 150 149 149 150 149 147 144 141 140 139 139 138 139 138 140 141 143 149 157 165 179 203 257 291 297
62 73 94 218 265 271 264 209 157 147 156 87 107 115 84 104 121 129 129 131 134 137 136 144 151 152 152 151 150 148 145 145 144 142 141 141 141 141 144 147 156 168 188 202 237 259 278 296 296
108 107 151 192 247 277 242 172 158 148 153 181 141 120 122 143 134 126 121 121 124 131 131 137 146 153 154 152 151 148 145 144 143 141 141 141 141 144 146 147 176 192 219 242 260 272 284 293 293
125 107 119 204 216 254 212 123 102 120 151 132 134 144 170 166 137 120 116 120 127 130 132 132 130 133 139 149 154 150 147 146 146 146 146 145 145 148 151 149 189 233 256 275 288 292 295 297 297
94 81 170 211 201 232 190 133 61 93 116 95 107 158 155 140 136 129 127 130 140 144 143 141 135 134 137 144 153 152 151 151 150 149 147 146 128 114 80 258 200 266 296 304 316 315 310 304 301
95 134 219 218 199 199 201 175 169 120 98 128 95 99 128 140 148 150 154 157 163 166 168 159 152 149 146 155 140 130 133 131 128 112 115 105 96 82 106 344 312 311 325 323 331 335 331 332 317
146 190 227 247 225 191 178 188 163 142 208 200 171 153 147 150 157 162 165 167 172 169 170 169 164 160 158 147 135 130 119 113 109 110 110 102 93 49 2 13 341 335 339 344 339 343 340 330 316
162 239 216 245 193 168 183 168 154 194 220 176 158 151 152 159 168 173 173 171 164 164 173 176 172 164 164 152 143 140 134 132 135 139 132 129 126 83 346 342 330 342 334 326 321 321 327 322 311
197 243 235 224 188 169 135 161 161 221 179 116 129 145 160 165 169 170 166 161 161 170 177 179 170 168 164 152 156 153 155 156 155 145 143 141 145 172 293 319 332 318 315 309 308 315 313 310 307
210 228 322 339 20 120 134 338 90 227 144 130 143 156 167 171 167 163 164 170 174 179 181 174 175 166 157 156 158 158 159 149 138 147 155 152 159 161 154 296 305 302 297 289 283 285 290 290 292
63 41 352 337 357 130 101 349 241 208 146 151 165 166 167 169 163 173 178 178 175 173 167 168 177 153 159 161 165 159 150 143 146 161 143 143 153 158 170 202 284 289 299 304 303 304 305 303 302
47 59 352 298 355 93 123 239 255 184 155 174 178 170 168 171 173 178 174 167 163 160 155 160 162 139 147 151 145 133 126 126 136 135 120 142 154 161 160 199 274 311 327 319 307 308 310 314 314
32 57 265 295 319 88 132 239 264 175 166 190 186 180 176 174 176 178 172 166 163 163 155 151 145 143 150 138 130 122 114 114 118 92 107 149 156 150 151 183 274 343 1 334 317 334 302 305 308
227 212 241 252 268 117 204 252 268 208 186 202 192 184 179 187 196 172 165 162 152 146 143 143 140 141 140 130 114 96 84 77 81 83 72 57 345 117 135 162 319 29 23 337 331 313 320 290 294
164 179 242 260 237 158 228 258 272 240 193 207 201 198 193 201 187 161 160 151 139 136 141 146 145 147 143 137 134 142 151 180 50 294 337 35 13 43 97 57 18 30 347 297 312 308 321 324 325
155 180 254 290 246 162 224 276 272 243 213 205 201 203 197 188 181 176 163 157 156 157 153 148 150 149 149 148 143 147 142 157 159 294 15 47 44 13 136 132 305 42 343 332 334 306 308 317 348
198 195 214 220 21 47 60 319 296 282 254 235 217 202 196 191 191 181 171 168 160 164 164 164 161 151 145 133 113 94 75 52 38 2 346 347 358 345 52 79 42 35 174 270 278 249 193 273 299
252 229 187 165 110 299 99 276 284 273 276 242 232 217 212 201 189 181 175 176 177 176 165 159 155 147 145 139 140 145 150 173 210 214 263 318 329 324 344 354 2 343 262 261 269 239 208 202 260
218 77 115 114 125 44 353 172 282 310 275 259 245 229 218 202 188 187 187 183 169 158 156 151 141 140 147 146 153 149 147 177 199 185 246 296 316 320 310 300 289 265 258 267 273 267 243 218 225
129 71 59 56 72 7 259 175 274 256 245 260 250 236 222 191 181 180 176 160 154 150 147 147 142 145 152 157 165 165 171 180 191 227 253 286 307 314 315 310 290 273 263 271 280 268 253 242 235
71 79 30 3 10 260 261 201 251 260 259 241 249 246 212 174 172 171 167 166 165 162 158 154 155 163 170 182 189 190 189 189 205 214 225 248 281 288 292 302 286 280 273 270 273 276 273 252 246
187 136 156 202 229 277 311 242 256 275 291 270 246 225 173 169 163 169 175 169 168 171 166 163 171 185 184 198 210 206 193 193 214 219 221 229 239 256 275 281 281 283 283 283 282 285 279 264 254
134 153 162 135 151 291 286 284 299 323 349 360 354 20 153 176 172 169 169 165 167 172 175 177 181 191 191 201 201 204 200 205 216 225 228 236 242 251 262 263 273 284 285 279 273 275 279 279 268
109 140 92 107 145 264 288 280 260 280 292 310 310 298 278 136 170 171 172 171 165 168 173 179 186 189 191 207 208 206 211 215 216 211 224 239 246 244 253 263 273 281 288 286 274 275 277 278 276
36 74 93 109 156 168 258 271 237 235 242 254 263 258 233 189 191 183 182 173 162 158 163 173 178 177 186 203 203 211 221 217 220 224 228 237 247 246 252 266 277 286 290 289 276 276 279 276 281
146 144 135 142 252 186 200 267 294 259 247 241 265 263 203 179 177 174 168 155 158 166 173 178 182 186 195 187 174 207 221 223 233 248 254 241 244 257 256 261 278 288 292 294 283 283 285 272 273